04:24
Airports
History
Links
Donate
Help keep this website running!
PayPal
Bitcoin
Information on this page is community maintained and may be outdated or inaccurate and is intended for reference only or PC simulator navigating!
Always use approved charts for navigating.
LDDU
DUBROVNIK
DUBROVNIK (LDDU)
Konavle, Dubrovnik-Neretva, Croatia (20213)
(C)
Lat/Lng:42° 33' 46.22" N / 18° 15' 52.2" E
42.56284 / 18.264499
Elevation:527'ft 161mMSL
ID / ICAO:LDDU
Runways:1
Longest:(12-30) 3,283.1m 10,771ft Asphalt
Controlled:Yes
Distance To
Airport ID:
Airport Radio Frequencies
Tower: 118.5
Approach: 123.6
Nearby VORs <50NM
Nearby NDBs
METARUpdated 12-05-16 04:00 GMT
Altimeter: 30.33
Visibility: 6.2 statute miles
Wind: 15 knots (020°)
Temp: 9°c 48°f
Humidity: 29.1%

METAR: LDDU 050400Z 02015KT 320V060 CAVOK 09/M08 Q1027 NOSIG

(Powered by phpweather)
Runway 12 / 30
Dimensions:3283.1 x 45.1m 10771' x 148'ft
Surface:Asphalt
Edge Lights:High intensity
Runway 12 [A]Runway 30 [B]
Heading:118°TH 298°TH
Lat:
Lng:
42° 34' 11.5"N
18° 14' 48.5"E
42° 33' 20.95"N
18° 16' 55.89"E
ALS:MALSMALS
TDZ:Yes, lighted
Google Map
Nearby Airports
(C) Tivat 25.8 NM
LYTV (WX) ESE 115°
(U) PLOCE 53.6 NM
LDDP NW 307°
(C) Podgorica 53.7 NM
LYPG (WX) ESE 104°
(C) MOSTAR 54.1 NM
LQMO (WX) NNW 336°
(C) GJADER 82.5 NM
LAGJ SE 124°
(C) Sarajevo 87.2 NM
LQSA (WX) N
(C) BRAC 94.5 NM
LDSB WNW 301°
VFR Chart
Flight Planning at SkyVector.com